Nashua, NH

4:19 PM EST on November 19, 2019 (GMT -0500)
Boire

Weather History for KASH - May, 2019

Change the Weather History Date:

Monday, May 20, 2019

  Actual Average Record
Temperature  
Mean Temperature 74 °F -  
Max Temperature 84 °F 70 °F 92 °F (1975)
Min Temperature 66 °F 46 °F 32 °F (1955)
Cooling Degree Days 9    
Growing Degree Days 24 (Base 50)    
Moisture  
Dew Point 64 °F    
Average Humidity 76    
Maximum Humidity 100    
Minimum Humidity 46    
Precipitation  
Precipitation 0.01 in - - ()
Sea Level Pressure  
Sea Level Pressure 29.76 in    
Wind  
Wind Speed 5 mph ()    
Max Wind Speed 20 mph    
Max Gust Speed 29 mph    
Visibility 10.0 miles    
Events Rain    
Averages and records for this station are not official NWS values.
T = Trace of Precipitation, MM = Missing Value Source: Averaged Metar Reports

Daily Weather History Graph

Daily Weather History Graph

Search for Another Location

Airport or City:

Astronomy

May. 20, 2019 Rise Set
Actual Time 5:18 AM EDT 8:06 PM EDT
Civil Twilight 4:45 AM EDT 8:39 PM EDT
Nautical Twilight 4:04 AM EDT 9:21 PM EDT
Astronomical Twilight 3:16 AM EDT 10:10 PM EDT
Moon 10:05 PM EDT (5/20) 6:44 AM EDT (5/20)
Length of Visible Light 15h 54m
Length of Day
14h 47m
Waning Gibbous, 96% of the Moon is Illuminated
May 20
Waning Gibbous
May 26
Last Quarter
Jun 3
New
Jun 10
First Quarter
Jun 17
Full

Hourly Weather History & Observations

Time (EDT) Temp. Heat Index Dew Point Humidity Pressure Visibility Wind Dir Wind Speed Gust Speed Precip Events Conditions
12:56 AM 66.9 °F - 64.9 °F 93% 29.90 in 10.0 mi ESE 5.8 mph - N/A   Overcast
1:30 AM 66.2 °F - 66.2 °F 100% 29.84 in 10.0 mi Variable 4.6 mph - N/A   Partly Cloudy
1:56 AM 66.0 °F - 66.0 °F 100% 29.88 in 10.0 mi SSE 4.6 mph - N/A   Clear
2:56 AM 66.0 °F - 66.0 °F 100% 29.87 in 10.0 mi Variable 3.5 mph - 0.00 in Rain Light Rain
3:56 AM 66.9 °F - 66.9 °F 100% 29.83 in 10.0 mi Variable 3.5 mph - 0.01 in   Partly Cloudy
4:56 AM 66.9 °F - 66.0 °F 97% 29.81 in 10.0 mi Calm Calm - N/A   Scattered Clouds
5:56 AM 66.0 °F - 66.0 °F 100% 29.78 in 10.0 mi Variable 3.5 mph - N/A   Clear
6:56 AM 66.9 °F - 66.0 °F 97% 29.82 in 10.0 mi SSE 3.5 mph - N/A   Scattered Clouds
7:56 AM 69.1 °F - 66.0 °F 90% 29.83 in 10.0 mi Calm Calm - N/A   Mostly Cloudy
8:56 AM 71.1 °F - 66.9 °F 87% 29.81 in 10.0 mi Variable 3.5 mph - N/A   Partly Cloudy
9:56 AM 73.0 °F - 66.9 °F 81% 29.80 in 10.0 mi Variable 4.6 mph - 0.00 in Rain Light Rain
10:56 AM 73.9 °F - 66.0 °F 76% 29.79 in 10.0 mi WSW 6.9 mph 16.1 mph 0.00 in   Mostly Cloudy
11:56 AM 78.1 °F - 66.0 °F 66% 29.76 in 10.0 mi WSW 5.8 mph - N/A   Mostly Cloudy
12:56 PM 81.0 °F 82.7 °F 64.9 °F 58% 29.73 in 10.0 mi Variable 6.9 mph - N/A   Mostly Cloudy
1:56 PM 80.6 °F 82.3 °F 64.4 °F 58% 29.69 in 10.0 mi West 9.2 mph 16.1 mph N/A   Mostly Cloudy
2:56 PM 77.0 °F - 66.9 °F 71% 29.71 in 10.0 mi WNW 11.5 mph 18.4 mph 0.00 in   Mostly Cloudy
3:56 PM 82.0 °F 83.1 °F 63.0 °F 52% 29.68 in 10.0 mi WSW 10.4 mph 18.4 mph N/A   Overcast
4:56 PM 82.9 °F 84.0 °F 63.0 °F 51% 29.66 in 10.0 mi WSW 8.1 mph 16.1 mph 0.00 in   Scattered Clouds
5:56 PM 82.9 °F 83.2 °F 60.1 °F 46% 29.64 in 10.0 mi WSW 8.1 mph 16.1 mph N/A   Scattered Clouds
6:56 PM 80.1 °F 80.6 °F 57.9 °F 47% 29.65 in 10.0 mi West 5.8 mph 13.8 mph N/A   Mostly Cloudy
7:56 PM 73.9 °F - 62.1 °F 66% 29.66 in 10.0 mi Calm Calm - N/A   Mostly Cloudy
8:56 PM 73.9 °F - 63.0 °F 68% 29.67 in 10.0 mi Calm Calm - N/A   Mostly Cloudy
9:56 PM 71.1 °F - 64.0 °F 78% 29.68 in 10.0 mi West 3.5 mph - N/A   Overcast
10:56 PM 73.0 °F - 59.0 °F 61% 29.71 in 10.0 mi WNW 12.7 mph - N/A   Overcast
11:56 PM 68.0 °F - 50.0 °F 52% 29.74 in 10.0 mi WNW 19.6 mph 28.8 mph N/A   Overcast